STARLINK-34233, 64172

Orbit data source: Space-Track

STARLINK-34233, 64172 is a payload satellite owned by SpaceX/Seattle (US) in LEO that was launched on Wed, 28 May 2025 UTC via an FALCON 9 launch vehicle from the Air Force Eastern Test Range (AFETR). Payload-class satellites include a variety of spacecraft equipped with specific instruments for various scientific and technological missions. These include communications satellites like Starlink; space stations such as the ISS; scientific satellites like the Hubble; Earth observation satellites from companies like Planet Labs, Umbra, and HawkEye 360; GPS; miniature CubeSats for education and research; and military/defense satellites.

Loading next visibility...
Identifier
64172, 2025-113C
Orbit
LEO
Country
Flag of USUS
Related business
Manufacturer
SpaceX/Seattle
Mission
Operational Commercial Communications
Bus & Motor
STARLINK V2MO, Unknown motor
Mass
575 kg wet, ~530 kg dry
Launch date (UTC)
2025-05-28 (1 year ago)
Launch vehicle
FALCON 9
Launch site
Air Force Eastern Test Range (AFETR)
Object type
Payload
Rocket body
Debris
Shape & HBR
Box + 2 Pan, 17.7 m
Radar Cross Section
36.964 m², Large (>1 m²)

Expand to show TLE details & history
Last TLE update: 11 hours ago

TLE from 11 hours ago
0 STARLINK-34233
1 64172U 25113C   26171.45277712  .00017046  00000-0  55969-3 0  9999
2 64172  53.1591 333.4518 0001352 129.4464 230.6657 15.31707753 60806
Epoch: 2026-06-20T10:51Z
TLE epoch observation values (Epoch: 2026-06-20T10:51:59.943Z)
Latitude
-0.00002°
Longitude
-98.21517°
Altitude
472.204 km
Speed
7.631 km/s
True Right ascension
22h 13m 48s
True Declination
0° 00' 00"
Sunlit
Object was in full shadow at epoch
Visualization orbit readout
Latitude
Unknown
Longitude
Unknown
Altitude
Unknown
Speed
Unknown
Apparent Right ascension
Unknown
Apparent Declination
Unknown
Sunlit
N/A
Visualization observer readout
Local Sidereal Time
08:32:25
Azimuth
Unknown
Elevation
Unknown
Doppler factor
Unknown
Orbital elements
Apogee altitude
471.9 km
Perigee altitude
470.048 km
Semi-major axis
6,849.111 km
Eccentricity
0.00014
Inclination
53.1591°
RAAN
333.4518°
Arg. of periapsis
129.4464°
True anomaly
230.65372°
Mean anomaly
230.6657°
Eccentric anomaly
230.65971°
Mean motion
3.82906 °/min
Orbital period
94.02 mins
BSTAR
0.00055969
Loading maneuver chart data...
Computing Atmospheric mass density...
Loading historical data...
Loading historical data...
Loading historical data...
Loading historical data...
Loading historical data...
Loading historical data...
Loading historical data...

Documentation

Showing up to 5 results
|